Terminal Aerodrome Forecast
Issued by NWS

Home | Current Version | Previous Version | Text Only | Print | Product List | Glossary On
Versions: 1 2 3 4 5 6 7 8 9 10 11 12 13 14 15 16 17 18 19 20 21 22 23 24 25 26 27 28 29 30 31 32 33 34 35 36 37 38 39 40 41 42 43 44 45 46 47 48 49
000
FTAK31 PANC 251959 AAC
TAFAIL
TAF AMD
PAIL 251959Z 2520/2618 21015G25KT P6SM VCSH SCT015 OVC035
      TEMPO 2520/2523 1SM -SN BR BKN025
     FM252300 18015G25KT P6SM -SHRA OVC025
     FM260300 24010G20KT P6SM VCSH FEW025 SCT035 BKN045
     FM261400 14008KT P6SM SCT035 BKN045=

USA.gov is the U.S. government's official web portal to all federal, state and local government web resources and services.